Regional Weather Roundup
Issued by NWS

Home | Current Version | Previous Version | Text Only | Print | Product List | Glossary On
Versions: 1 2 3 4 5 6 7 8 9 10 11 12 13 14 15 16 17 18 19 20 21 22 23 24 25 26 27 28 29 30 31 32 33 34 35 36 37 38 39 40 41 42 43 44 45 46 47 48 49 50
000
ASUS43 KTOP 171359
RWRKS

WEATHER ROUNDUP FOR KANSAS
NATIONAL WEATHER SERVICE GOODLAND KS
900 AM CDT THU AUG 17 2017

NOTE:  "FAIR" INDICATES FEW OR NO CLOUDS BELOW 12,000 FEET WITH NO
SIGNIFICANT WEATHER AND/OR OBSTRUCTIONS TO VISIBILITY.

KSZ001>006-013>018-027>032-041>047-171500-
NORTHWEST KANSAS

CITY           SKY/WX    TMP DP  RH WIND       PRES   REMARKS
GOODLAND       SUNNY     65  57  75 SW12      30.13S
HAYS           SUNNY     66  62  87 NW12      30.08R
HILL CITY      SUNNY     64  61  90 W9        30.09R
RUSSELL        SUNNY     67  60  78 NW8       30.05S
$$

KSZ061>065-074>080-084>089-171500-
SOUTHWEST KANSAS

CITY           SKY/WX    TMP DP  RH WIND       PRES   REMARKS
DODGE CITY     PTSUNNY   72  62  71 N7        30.11R
ELKHART          N/A     65  62  90 NW2         N/A
GARDEN CITY    CLOUDY    63  60  90 CALM      30.11F
GREAT BEND     SUNNY     67  62  84 NW10      30.06F
LIBERAL        SUNNY     68  61  78 MISG        N/A
$$

KSZ066>073-081>083-090>101-171500-
SOUTHEAST KANSAS

CITY           SKY/WX    TMP DP  RH WIND       PRES   REMARKS
CHANUTE        CLOUDY    71  67  87 NW8       29.99R
COFFEYVILLE    CLOUDY    71  69  93 N7        29.99R
HUTCHINSON     SUNNY     70  64  81 NW9       30.02S
MEDICINE LODGE   N/A     69  62  78 N5        30.04S
NEWTON         SUNNY     69  63  81 NW7       30.03R
PARSONS        LGT RAIN  70  68  93 NW5       30.00S
WICHITA INTL   MOSUNNY   71  64  78 NW7       30.03R
WICHITA JABRA  SUNNY     70  64  81 NW7       30.02R
WICHITA MCCONL SUNNY     70  62  75 N5        30.03R
WINFIELD       SUNNY     71  66  84 N6        30.04R
$$

KSZ007>012-019>026-033>040-048>060-102>105-171500-
NORTHEAST KANSAS

CITY           SKY/WX    TMP DP  RH WIND       PRES   REMARKS
CONCORDIA      SUNNY     66  62  87 NW6       30.01S
EMPORIA        SUNNY     69  63  81 NW7       30.00R
LAWRENCE       SUNNY     70  66  87 W8        29.96R
MANHATTAN      SUNNY     69  64  84 VRB6      29.99R
OLATHE IND     CLOUDY    69  65  86 W10       29.97R
OLATHE EXE     CLOUDY    69  65  86 W8        29.96R
SALINA         SUNNY     71  62  73 NW13      30.02R
TOPEKA BILLARD SUNNY     69  65  86 W7        29.96R
TOPEKA FORBES  SUNNY     71  64  78 NW10      29.97R
$$




USA.gov is the U.S. government's official web portal to all federal, state and local government web resources and services.